TimeCDT,TemperatureF,Dew PointF,Humidity,Sea Level PressureIn,VisibilityMPH,Wind Direction,Wind SpeedMPH,Gust SpeedMPH,PrecipitationIn,Events,Conditions,WindDirDegrees,DateUTC
12:15 AM,65.7,57.4,75,30.14,10.0,SE,6.9,-,N/A,,Mostly Cloudy,140,2013-03-30 05:15:00
12:35 AM,65.3,57.6,76,30.13,10.0,SE,6.9,-,N/A,,Scattered Clouds,140,2013-03-30 05:35:00
12:55 AM,64.9,57.4,76,30.12,10.0,SSE,5.8,-,N/A,,Scattered Clouds,150,2013-03-30 05:55:00
1:15 AM,64.4,57.7,79,30.10,10.0,SE,9.2,-,N/A,,Scattered Clouds,140,2013-03-30 06:15:00
1:35 AM,64.0,58.1,81,30.12,10.0,South,6.9,-,N/A,,Scattered Clouds,170,2013-03-30 06:35:00
1:55 AM,63.9,58.3,82,30.11,10.0,SSE,10.4,16.1,N/A,Rain,Light Rain,160,2013-03-30 06:55:00
2:15 AM,63.0,58.6,86,30.10,10.0,SSE,8.1,-,N/A,,Light Drizzle,160,2013-03-30 07:15:00
2:35 AM,62.8,58.6,86,30.10,10.0,SSE,11.5,16.1,N/A,,Scattered Clouds,160,2013-03-30 07:35:00
2:55 AM,62.6,58.5,86,30.04,10.0,SE,11.5,18.4,N/A,Rain,Light Rain,140,2013-03-30 07:55:00
3:15 AM,62.4,58.5,87,30.07,10.0,South,9.2,-,N/A,,Clear,170,2013-03-30 08:15:00
3:35 AM,62.6,58.5,86,30.08,10.0,South,6.9,-,N/A,,Mostly Cloudy,180,2013-03-30 08:35:00
3:55 AM,62.6,58.6,87,30.11,10.0,SSW,6.9,-,N/A,,Overcast,210,2013-03-30 08:55:00
4:15 AM,62.1,58.8,89,30.11,10.0,SSW,9.2,-,N/A,Rain,Light Rain,210,2013-03-30 09:15:00
4:35 AM,61.7,58.6,90,30.11,10.0,South,5.8,-,N/A,,Light Drizzle,190,2013-03-30 09:35:00
4:55 AM,61.3,58.6,91,30.12,10.0,West,3.5,-,N/A,,Light Drizzle,260,2013-03-30 09:55:00
5:15 AM,59.5,55.9,88,30.14,7.0,NNW,11.5,18.4,0.05,Rain,Heavy Rain,330,2013-03-30 10:15:00
5:35 AM,57.4,54.9,91,30.13,2.0,West,5.8,9.2,0.35,Rain,Heavy Rain,280,2013-03-30 10:35:00
5:55 AM,57.2,55.4,94,30.09,4.0,SE,11.5,-,0.47,Rain,Heavy Rain,140,2013-03-30 10:55:00
6:15 AM,57.2,55.6,94,30.04,10.0,ESE,11.5,-,0.01,Rain,Light Rain,120,2013-03-30 11:15:00
6:35 AM,57.6,56.1,95,30.06,10.0,West,4.6,-,0.01,Rain,Light Rain,280,2013-03-30 11:35:00
6:55 AM,58.3,56.5,94,30.08,10.0,Calm,Calm,-,0.01,,Scattered Clouds,0,2013-03-30 11:55:00
7:15 AM,58.3,56.3,93,30.08,10.0,Calm,Calm,-,N/A,,Clear,0,2013-03-30 12:15:00
7:35 AM,58.1,56.3,94,30.08,10.0,Calm,Calm,-,N/A,,Clear,0,2013-03-30 12:35:00
7:55 AM,56.3,54.7,94,30.10,4.0,Calm,Calm,-,N/A,,Scattered Clouds,0,2013-03-30 12:55:00
8:15 AM,59.0,57.6,95,30.09,7.0,Calm,Calm,-,N/A,,Overcast,0,2013-03-30 13:15:00
8:35 AM,59.5,58.3,96,30.10,7.0,Calm,Calm,-,N/A,,Overcast,0,2013-03-30 13:35:00
8:55 AM,60.1,58.6,95,30.10,7.0,SSE,3.5,-,N/A,,Overcast,160,2013-03-30 13:55:00
9:15 AM,61.2,59.7,95,30.09,5.0,SSE,5.8,-,N/A,,Overcast,150,2013-03-30 14:15:00
9:35 AM,61.7,59.9,94,30.09,7.0,South,5.8,-,N/A,,Overcast,170,2013-03-30 14:35:00
9:55 AM,62.6,60.1,91,30.09,10.0,South,9.2,-,N/A,,Overcast,170,2013-03-30 14:55:00
10:15 AM,63.1,60.1,90,30.10,10.0,South,6.9,17.3,N/A,,Overcast,170,2013-03-30 15:15:00
10:35 AM,64.6,60.3,86,30.09,10.0,SSE,6.9,-,N/A,,Overcast,160,2013-03-30 15:35:00
10:55 AM,64.8,59.5,83,30.10,10.0,South,6.9,-,N/A,,Overcast,190,2013-03-30 15:55:00
11:15 AM,68.2,60.3,76,30.09,10.0,South,8.1,-,N/A,,Mostly Cloudy,170,2013-03-30 16:15:00
11:35 AM,69.6,60.3,72,30.09,10.0,SSW,12.7,17.3,N/A,,Mostly Cloudy,200,2013-03-30 16:35:00
11:55 AM,69.3,59.7,72,30.09,10.0,South,10.4,-,N/A,,Mostly Cloudy,190,2013-03-30 16:55:00
12:15 PM,72.5,59.7,64,30.08,10.0,SSW,9.2,-,N/A,,Mostly Cloudy,200,2013-03-30 17:15:00
12:35 PM,71.4,58.8,64,30.07,10.0,SSW,11.5,18.4,N/A,,Mostly Cloudy,210,2013-03-30 17:35:00
12:55 PM,72.5,58.6,62,30.07,10.0,South,12.7,-,N/A,,Overcast,190,2013-03-30 17:55:00
1:15 PM,73.4,58.6,60,30.06,10.0,South,9.2,-,N/A,,Overcast,190,2013-03-30 18:15:00
1:35 PM,73.2,58.5,60,30.05,10.0,SSW,8.1,-,N/A,,Overcast,210,2013-03-30 18:35:00
1:55 PM,73.4,58.3,59,30.04,10.0,South,9.2,-,N/A,,Overcast,190,2013-03-30 18:55:00
2:15 PM,74.3,58.3,57,30.03,10.0,SW,8.1,-,N/A,,Overcast,220,2013-03-30 19:15:00
2:35 PM,74.5,58.6,58,30.02,10.0,SSW,6.9,-,N/A,,Overcast,210,2013-03-30 19:35:00
2:55 PM,75.7,58.6,55,30.01,10.0,SSW,11.5,-,N/A,,Overcast,200,2013-03-30 19:55:00
3:15 PM,77.0,58.3,52,30.00,10.0,SSW,11.5,-,N/A,,Overcast,200,2013-03-30 20:15:00
3:35 PM,76.5,58.3,53,29.99,10.0,SSW,11.5,19.6,N/A,,Mostly Cloudy,200,2013-03-30 20:35:00
3:55 PM,76.8,58.5,53,29.98,10.0,SSW,8.1,-,N/A,,Mostly Cloudy,200,2013-03-30 20:55:00
4:15 PM,76.8,58.3,53,29.98,10.0,SSW,9.2,-,N/A,,Overcast,200,2013-03-30 21:15:00
4:35 PM,75.7,58.5,55,29.97,10.0,South,8.1,-,N/A,,Overcast,180,2013-03-30 21:35:00
4:55 PM,76.1,58.8,55,29.97,10.0,South,9.2,-,N/A,,Overcast,170,2013-03-30 21:55:00
5:15 PM,76.3,58.8,55,29.96,10.0,SSE,6.9,-,N/A,,Overcast,160,2013-03-30 22:15:00
5:35 PM,76.3,59.0,55,29.96,10.0,SSE,8.1,-,N/A,,Overcast,160,2013-03-30 22:35:00
5:55 PM,75.7,58.5,55,29.96,10.0,SSE,9.2,-,N/A,,Overcast,160,2013-03-30 22:55:00
6:15 PM,75.2,58.8,57,29.96,10.0,SSE,6.9,-,N/A,,Overcast,160,2013-03-30 23:15:00
6:35 PM,74.7,58.5,57,29.96,10.0,SSE,6.9,-,N/A,,Overcast,150,2013-03-30 23:35:00
6:55 PM,73.9,59.0,59,29.97,10.0,SE,5.8,-,N/A,,Overcast,140,2013-03-30 23:55:00
7:15 PM,73.4,59.0,61,29.96,10.0,SE,5.8,-,N/A,,Overcast,140,2013-03-31 00:15:00
7:35 PM,72.7,59.0,62,29.96,10.0,SE,4.6,-,N/A,,Overcast,140,2013-03-31 00:35:00
7:55 PM,72.1,59.0,63,29.95,10.0,SE,3.5,-,N/A,,Overcast,130,2013-03-31 00:55:00
8:15 PM,71.6,59.0,64,29.96,10.0,SE,3.5,-,N/A,,Overcast,130,2013-03-31 01:15:00
8:35 PM,71.2,59.0,65,29.95,10.0,SE,4.6,-,N/A,,Overcast,130,2013-03-31 01:35:00
8:55 PM,70.7,59.2,67,29.96,10.0,SE,4.6,-,N/A,,Overcast,130,2013-03-31 01:55:00
9:15 PM,70.2,59.0,68,29.96,10.0,ESE,3.5,-,N/A,,Mostly Cloudy,120,2013-03-31 02:15:00
9:35 PM,69.6,59.0,69,29.97,10.0,SE,3.5,-,N/A,,Scattered Clouds,140,2013-03-31 02:35:00
9:55 PM,69.8,59.0,68,29.96,10.0,SE,6.9,-,N/A,,Mostly Cloudy,140,2013-03-31 02:55:00
10:35 PM,69.4,59.4,70,29.97,10.0,SE,8.1,-,N/A,,Mostly Cloudy,140,2013-03-31 03:35:00
10:55 PM,68.5,59.5,73,29.97,10.0,SE,6.9,-,N/A,,Scattered Clouds,140,2013-03-31 03:55:00
11:15 PM,68.0,59.9,75,29.97,10.0,SE,6.9,-,N/A,,Clear,140,2013-03-31 04:15:00
11:35 PM,67.1,59.9,78,29.97,10.0,SE,5.8,-,N/A,,Clear,140,2013-03-31 04:35:00
11:55 PM,66.6,60.4,81,29.97,10.0,SSE,6.9,-,N/A,,Clear,150,2013-03-31 04:55:00